AMX1045 MMOX-MMMX

Flight info

Callsign AMX1045
Flight time 0h 43m
Altitude 30000
Route MAXIL UT158 KODEK UT157 LARLO LARLO3B
Aircraft B738/M-SDE2E3FGHIRWXY/LB1

Departure

Time 2026-05-06 00:52
Airport Xoxocotlán International Airport (MMOX)

Arrival

Time 2026-05-06 01:35
Airport Mexico City Benito Juárez International Airport (MMMX)
Time Latitude Longitude Altitude Speed Heading
2026-05-05 23:39 17.00098 -96.72268 4993 ft 0 kts 105°
2026-05-06 00:42 17.00101 -96.72279 4993 ft 3 kts 102°
2026-05-06 00:42 17.00104 -96.72300 4993 ft 3 kts 88°
2026-05-06 00:43 17.00100 -96.72320 4993 ft 3 kts 62°
2026-05-06 00:43 17.00088 -96.72334 4993 ft 3 kts 19°
2026-05-06 00:43 17.00085 -96.72336 4993 ft 1 kts 15°
2026-05-06 00:46 17.00087 -96.72335 4993 ft 1 kts 11°
2026-05-06 00:47 17.00092 -96.72345 4993 ft 2 kts 276°
2026-05-06 00:47 17.00069 -96.72374 4992 ft 10 kts 225°
2026-05-06 00:47 17.00002 -96.72447 4989 ft 17 kts 226°
2026-05-06 00:47 16.99936 -96.72540 4987 ft 13 kts 281°
2026-05-06 00:48 17.00018 -96.72553 4987 ft 13 kts 15°
2026-05-06 00:48 17.00104 -96.72528 4987 ft 13 kts 15°
2026-05-06 00:48 17.00197 -96.72500 4985 ft 15 kts 16°
2026-05-06 00:48 17.00310 -96.72467 4986 ft 18 kts 15°
2026-05-06 00:49 17.00427 -96.72433 4990 ft 17 kts 15°
2026-05-06 00:49 17.00544 -96.72400 4991 ft 18 kts 15°
2026-05-06 00:49 17.00683 -96.72359 4992 ft 23 kts 16°
2026-05-06 00:49 17.00839 -96.72348 4993 ft 21 kts 345°
2026-05-06 00:50 17.00917 -96.72329 4993 ft 10 kts 77°
2026-05-06 00:50 17.00887 -96.72301 4992 ft 3 kts 187°
2026-05-06 00:50 17.00880 -96.72303 4992 ft 1 kts 195°
2026-05-06 00:50 17.00878 -96.72304 4992 ft 0 kts 195°
2026-05-06 00:51 17.00854 -96.72311 4993 ft 20 kts 195°
2026-05-06 00:51 17.00498 -96.72414 4991 ft 86 kts 195°
2026-05-06 00:51 16.99727 -96.72639 4990 ft 142 kts 195°
2026-05-06 00:52 16.98625 -96.72962 5085 ft 180 kts 195°
2026-05-06 00:52 16.97424 -96.73330 5816 ft 180 kts 196°
2026-05-06 00:52 16.96230 -96.73663 6623 ft 176 kts 191°
2026-05-06 00:52 16.94966 -96.73937 7019 ft 200 kts 191°
2026-05-06 00:53 16.93524 -96.74257 7197 ft 222 kts 191°
2026-05-06 00:53 16.91965 -96.74622 7357 ft 243 kts 192°
2026-05-06 00:53 16.90256 -96.75043 7564 ft 261 kts 193°
2026-05-06 00:53 16.88452 -96.75502 7814 ft 277 kts 193°
2026-05-06 00:54 16.86529 -96.76003 8149 ft 291 kts 193°
2026-05-06 00:54 16.84555 -96.76526 8880 ft 293 kts 193°
2026-05-06 00:54 16.82575 -96.77053 9657 ft 295 kts 193°
2026-05-06 00:54 16.80562 -96.77590 10272 ft 304 kts 193°
2026-05-06 00:55 16.78418 -96.78076 10430 ft 327 kts 182°
2026-05-06 00:55 16.76129 -96.77713 10609 ft 343 kts 156°
2026-05-06 00:55 16.74127 -96.76328 10996 ft 351 kts 133°
2026-05-06 00:55 16.72766 -96.74226 11599 ft 352 kts 111°
2026-05-06 00:56 16.72237 -96.71750 12278 ft 351 kts 90°
2026-05-06 00:56 16.72632 -96.69249 12948 ft 352 kts 69°
2026-05-06 00:56 16.73913 -96.67081 13567 ft 356 kts 47°
2026-05-06 00:56 16.75910 -96.65549 14156 ft 362 kts 26°
2026-05-06 00:57 16.78357 -96.64893 14727 ft 369 kts
2026-05-06 00:57 16.80922 -96.65250 15314 ft 377 kts 344°
2026-05-06 00:57 16.83370 -96.66278 15892 ft 381 kts 336°
2026-05-06 00:57 16.85761 -96.67516 16417 ft 386 kts 335°
2026-05-06 00:58 16.88177 -96.68787 16913 ft 390 kts 336°
2026-05-06 00:58 16.90631 -96.70021 17478 ft 393 kts 337°
2026-05-06 00:58 16.93122 -96.71217 18011 ft 396 kts 338°
2026-05-06 00:58 16.95609 -96.72387 18504 ft 399 kts 338°
2026-05-06 00:59 16.98118 -96.73655 19004 ft 404 kts 332°
2026-05-06 00:59 17.00477 -96.75272 19523 ft 408 kts 327°
2026-05-06 00:59 17.02788 -96.77020 19998 ft 412 kts 325°
2026-05-06 00:59 17.05096 -96.78806 20476 ft 414 kts 325°
2026-05-06 01:00 17.07429 -96.80595 20933 ft 417 kts 326°
2026-05-06 01:00 17.09789 -96.82378 21390 ft 419 kts 326°
2026-05-06 01:00 17.12174 -96.84159 21823 ft 422 kts 326°
2026-05-06 01:00 17.14579 -96.85941 22233 ft 425 kts 326°
2026-05-06 01:01 17.17004 -96.87732 22638 ft 428 kts 326°
2026-05-06 01:01 17.19441 -96.89529 23037 ft 430 kts 326°
2026-05-06 01:01 17.21892 -96.91339 23397 ft 433 kts 326°
2026-05-06 01:01 17.24362 -96.93165 23775 ft 435 kts 326°
2026-05-06 01:02 17.26839 -96.94997 24154 ft 437 kts 326°
2026-05-06 01:02 17.29333 -96.96842 24506 ft 440 kts 326°
2026-05-06 01:02 17.31839 -96.98697 24835 ft 442 kts 326°
2026-05-06 01:02 17.34354 -97.00562 25169 ft 445 kts 326°
2026-05-06 01:03 17.36852 -97.02417 25503 ft 447 kts 326°
2026-05-06 01:03 17.39424 -97.04329 25837 ft 448 kts 326°
2026-05-06 01:03 17.41972 -97.06224 26153 ft 450 kts 326°
2026-05-06 01:03 17.44534 -97.08130 26453 ft 452 kts 326°
2026-05-06 01:04 17.47073 -97.10018 26736 ft 455 kts 326°
2026-05-06 01:04 17.49656 -97.11941 27054 ft 456 kts 326°
2026-05-06 01:04 17.52242 -97.13867 27470 ft 455 kts 326°
2026-05-06 01:04 17.54814 -97.15783 27934 ft 454 kts 325°
2026-05-06 01:05 17.57387 -97.17690 28401 ft 452 kts 325°
2026-05-06 01:05 17.59919 -97.19624 28874 ft 450 kts 322°
2026-05-06 01:05 17.62249 -97.21816 29281 ft 450 kts 317°
2026-05-06 01:05 17.64498 -97.24088 29705 ft 449 kts 316°
2026-05-06 01:06 17.66730 -97.26378 30038 ft 450 kts 316°
2026-05-06 01:06 17.71229 -97.30991 30042 ft 451 kts 316°
2026-05-06 01:07 17.75707 -97.35539 30049 ft 447 kts 316°
2026-05-06 01:07 17.80197 -97.40077 30052 ft 449 kts 316°
2026-05-06 01:08 17.84703 -97.44631 30049 ft 450 kts 316°
2026-05-06 01:08 17.89221 -97.49199 30052 ft 451 kts 316°
2026-05-06 01:09 17.93745 -97.53778 30046 ft 451 kts 316°
2026-05-06 01:09 17.97491 -97.57573 30055 ft 449 kts 316°
2026-05-06 01:10 18.02696 -97.62850 30073 ft 445 kts 316°
2026-05-06 01:10 18.06421 -97.66629 30083 ft 444 kts 316°
2026-05-06 01:11 18.10855 -97.71132 30093 ft 443 kts 316°
2026-05-06 01:11 18.15258 -97.75610 30102 ft 443 kts 316°
2026-05-06 01:12 18.19699 -97.80124 30117 ft 445 kts 316°
2026-05-06 01:12 18.24159 -97.84662 30128 ft 447 kts 316°
2026-05-06 01:13 18.28643 -97.89222 30137 ft 449 kts 316°
2026-05-06 01:13 18.33137 -97.93796 30148 ft 450 kts 316°
2026-05-06 01:14 18.39872 -98.00656 30161 ft 448 kts 316°
2026-05-06 01:14 18.44327 -98.05200 30162 ft 438 kts 316°
2026-05-06 01:15 18.48629 -98.09591 30188 ft 428 kts 316°
2026-05-06 01:15 18.52908 -98.13963 29935 ft 430 kts 315°
2026-05-06 01:16 18.55035 -98.16137 29624 ft 423 kts 316°
2026-05-06 01:16 18.57144 -98.18293 29187 ft 421 kts 316°
2026-05-06 01:16 18.59237 -98.20431 28773 ft 417 kts 316°
2026-05-06 01:16 18.61311 -98.22558 28349 ft 415 kts 315°
2026-05-06 01:17 18.63365 -98.24677 27937 ft 411 kts 316°
2026-05-06 01:17 18.65382 -98.26736 27521 ft 407 kts 316°
2026-05-06 01:17 18.67411 -98.28801 27097 ft 404 kts 316°
2026-05-06 01:17 18.69419 -98.30855 26684 ft 400 kts 316°
2026-05-06 01:18 18.71221 -98.33065 26238 ft 399 kts 301°
2026-05-06 01:18 18.72270 -98.35752 25743 ft 398 kts 283°
2026-05-06 01:18 18.72835 -98.38608 25236 ft 399 kts 280°
2026-05-06 01:18 18.73333 -98.41498 24689 ft 401 kts 279°
2026-05-06 01:19 18.73819 -98.44396 24133 ft 402 kts 280°
2026-05-06 01:19 18.74314 -98.47301 23581 ft 402 kts 280°
2026-05-06 01:19 18.74821 -98.50201 23035 ft 402 kts 280°
2026-05-06 01:19 18.75339 -98.53097 22481 ft 402 kts 281°
2026-05-06 01:20 18.75862 -98.55992 21935 ft 402 kts 281°
2026-05-06 01:20 18.76389 -98.58885 21392 ft 401 kts 281°
2026-05-06 01:20 18.76916 -98.61778 20841 ft 401 kts 281°
2026-05-06 01:20 18.77442 -98.64672 20298 ft 401 kts 281°
2026-05-06 01:21 18.77966 -98.67560 19742 ft 400 kts 281°
2026-05-06 01:21 18.78482 -98.70400 19202 ft 399 kts 281°
2026-05-06 01:21 18.79002 -98.73268 18657 ft 398 kts 281°
2026-05-06 01:21 18.79527 -98.76167 18111 ft 397 kts 281°
2026-05-06 01:22 18.80038 -98.78977 17402 ft 393 kts 281°
2026-05-06 01:22 18.80541 -98.81748 17144 ft 376 kts 281°
2026-05-06 01:22 18.81071 -98.84410 17014 ft 365 kts 283°
2026-05-06 01:22 18.81628 -98.86983 16880 ft 355 kts 284°
2026-05-06 01:23 18.82586 -98.89345 16475 ft 355 kts 308°
2026-05-06 01:23 18.84432 -98.91016 16202 ft 350 kts 332°
2026-05-06 01:23 18.86676 -98.91948 15990 ft 345 kts 345°
2026-05-06 01:23 18.88969 -98.92629 15809 ft 340 kts 346°
2026-05-06 01:24 18.91246 -98.93277 15637 ft 336 kts 346°
2026-05-06 01:24 18.93489 -98.93918 15472 ft 334 kts 346°
2026-05-06 01:24 18.95741 -98.94572 15334 ft 335 kts 346°
2026-05-06 01:24 18.97957 -98.95226 15159 ft 324 kts 345°
2026-05-06 01:25 19.00070 -98.95856 15031 ft 308 kts 345°
2026-05-06 01:25 19.02057 -98.96451 14888 ft 294 kts 345°
2026-05-06 01:25 19.03983 -98.97029 14755 ft 281 kts 345°
2026-05-06 01:25 19.05823 -98.97574 14643 ft 270 kts 338°
2026-05-06 01:26 19.07387 -98.98637 14531 ft 268 kts 315°
2026-05-06 01:26 19.08434 -99.00193 14435 ft 267 kts 293°
2026-05-06 01:26 19.08980 -99.02032 14411 ft 258 kts 284°
2026-05-06 01:26 19.09422 -99.03859 14350 ft 256 kts 284°
2026-05-06 01:27 19.09859 -99.05692 14311 ft 257 kts 285°
2026-05-06 01:27 19.10741 -99.07303 13973 ft 255 kts 321°
2026-05-06 01:27 19.12320 -99.08046 13512 ft 251 kts 358°
2026-05-06 01:27 19.14029 -99.07887 13298 ft 243 kts
2026-05-06 01:28 19.15714 -99.07786 13113 ft 240 kts
2026-05-06 01:28 19.17344 -99.07741 12956 ft 235 kts
2026-05-06 01:28 19.18964 -99.07705 12819 ft 231 kts
2026-05-06 01:28 19.20555 -99.07670 12690 ft 227 kts
2026-05-06 01:29 19.22138 -99.07639 12572 ft 228 kts
2026-05-06 01:29 19.23721 -99.07735 12422 ft 230 kts 342°
2026-05-06 01:29 19.25043 -99.08678 12174 ft 233 kts 310°
2026-05-06 01:29 19.26032 -99.10049 11862 ft 237 kts 307°
2026-05-06 01:30 19.27021 -99.11438 11516 ft 235 kts 307°
2026-05-06 01:30 19.28002 -99.12809 11190 ft 231 kts 307°
2026-05-06 01:30 19.28967 -99.14147 10856 ft 227 kts 307°
2026-05-06 01:30 19.29922 -99.15466 10526 ft 224 kts 307°
2026-05-06 01:31 19.30857 -99.16768 10205 ft 221 kts 307°
2026-05-06 01:31 19.31790 -99.18040 9916 ft 214 kts 311°
2026-05-06 01:31 19.32902 -99.19013 9750 ft 205 kts 334°
2026-05-06 01:31 19.34262 -99.19393 9592 ft 202 kts 359°
2026-05-06 01:32 19.35647 -99.19200 9465 ft 203 kts 19°
2026-05-06 01:32 19.36888 -99.18495 9308 ft 203 kts 41°
2026-05-06 01:32 19.37792 -99.17388 9146 ft 193 kts 59°
2026-05-06 01:32 19.38446 -99.16217 9038 ft 178 kts 60°
2026-05-06 01:33 19.39087 -99.15077 8808 ft 180 kts 61°
2026-05-06 01:33 19.39720 -99.13942 8575 ft 178 kts 62°
2026-05-06 01:33 19.40344 -99.12821 8339 ft 176 kts 63°
2026-05-06 01:33 19.40969 -99.11698 8096 ft 177 kts 63°
2026-05-06 01:34 19.41591 -99.10577 7844 ft 176 kts 63°
2026-05-06 01:34 19.42207 -99.09475 7621 ft 171 kts 61°
2026-05-06 01:34 19.42813 -99.08382 7384 ft 173 kts 59°
2026-05-06 01:34 19.43406 -99.07327 7302 ft 153 kts 59°
2026-05-06 01:35 19.43841 -99.06552 7302 ft 92 kts 59°
2026-05-06 01:35 19.43982 -99.06222 7302 ft 23 kts 98°
2026-05-06 01:35 19.43965 -99.06094 7302 ft 14 kts 103°
2026-05-06 01:35 19.43907 -99.06095 7302 ft 10 kts 239°
2026-05-06 01:36 19.43872 -99.06156 7302 ft 10 kts 239°
2026-05-06 01:36 19.43839 -99.06215 7302 ft 9 kts 239°
2026-05-06 01:36 19.43806 -99.06273 7302 ft 9 kts 239°
2026-05-06 01:36 19.43775 -99.06329 7302 ft 9 kts 239°
2026-05-06 01:37 19.43745 -99.06384 7302 ft 9 kts 239°
2026-05-06 01:37 19.43715 -99.06437 7302 ft 9 kts 239°
2026-05-06 01:37 19.43681 -99.06498 7302 ft 11 kts 239°
2026-05-06 01:37 19.43638 -99.06575 7302 ft 13 kts 239°
2026-05-06 01:38 19.43604 -99.06635 7302 ft 4 kts 239°
2026-05-06 01:38 19.43591 -99.06659 7302 ft 4 kts 239°
2026-05-06 01:38 19.43575 -99.06680 7302 ft 4 kts 224°
2026-05-06 01:38 19.43533 -99.06712 7302 ft 11 kts 208°
2026-05-06 01:39 19.43447 -99.06763 7302 ft 17 kts 219°
2026-05-06 01:39 19.43388 -99.06888 7302 ft 22 kts 240°
2026-05-06 01:39 19.43308 -99.07030 7302 ft 22 kts 238°
2026-05-06 01:39 19.43257 -99.07177 7302 ft 22 kts 267°
2026-05-06 01:40 19.43213 -99.07323 7302 ft 21 kts 238°
2026-05-06 01:40 19.43137 -99.07456 7302 ft 22 kts 239°
2026-05-06 01:40 19.43053 -99.07604 7302 ft 25 kts 239°
2026-05-06 01:40 19.42962 -99.07758 7302 ft 24 kts 229°
2026-05-06 01:41 19.42830 -99.07854 7302 ft 23 kts 208°
2026-05-06 01:41 19.42719 -99.07860 7302 ft 2 kts 150°
2026-05-06 01:41 19.42709 -99.07854 7302 ft 2 kts 153°
2026-05-06 01:41 19.42697 -99.07861 7302 ft 3 kts 225°
2026-05-06 01:42 19.42670 -99.07907 7302 ft 11 kts 238°
2026-05-06 01:42 19.42612 -99.07966 7302 ft 12 kts 177°
2026-05-06 01:42 19.42531 -99.07947 7302 ft 12 kts 188°
2026-05-06 01:42 19.42474 -99.07918 7302 ft 6 kts 133°
2026-05-06 01:43 19.42469 -99.07914 7302 ft 0 kts 134°